Total_Precipitation_Accumulation
0.21 0.19 0.25 0.33 0.35 0.43 0.57 0.75 0.97 0.88 0.68 0.56 0.52 0.49 0.50 0.55 0.49 0.43 0.39 0.38 0.36 0.33 0.33 0.35 0.38 0.46 0.52 0.66 0.81 0.93 0.98 0.93 0.86 0.80 0.70 0.63 0.57 0.51 0.52 0.48 0.48 0.54 0.70 0.88
0.08 0.11 0.16 0.28 0.41 0.54 0.60 0.68 0.70 0.61 0.57 0.43 0.36 0.33 0.32 0.37 0.37 0.36 0.32 0.27 0.24 0.24 0.22 0.24 0.30 0.36 0.37 0.49 0.63 0.74 0.80 0.81 0.82 0.78 0.62 0.54 0.48 0.41 0.40 0.41 0.42 0.45 0.53 0.69
0.08 0.09 0.18 0.40 0.53 0.60 0.59 0.55 0.46 0.43 0.38 0.27 0.24 0.17 0.17 0.22 0.25 0.30 0.28 0.23 0.21 0.20 0.21 0.23 0.30 0.32 0.33 0.42 0.53 0.58 0.62 0.65 0.67 0.63 0.49 0.44 0.35 0.31 0.34 0.36 0.38 0.41 0.47 0.59
0.13 0.13 0.35 0.62 0.51 0.45 0.48 0.38 0.24 0.21 0.21 0.19 0.15 0.11 0.09 0.09 0.11 0.14 0.16 0.16 0.21 0.18 0.17 0.19 0.24 0.29 0.37 0.40 0.42 0.43 0.47 0.50 0.49 0.48 0.43 0.36 0.28 0.28 0.30 0.34 0.37 0.39 0.43 0.49
0.22 0.24 0.43 0.57 0.38 0.34 0.39 0.35 0.17 0.12 0.12 0.09 0.07 0.06 0.03 0.03 0.05 0.06 0.06 0.07 0.10 0.09 0.09 0.10 0.10 0.11 0.14 0.17 0.20 0.24 0.32 0.38 0.41 0.41 0.37 0.32 0.27 0.33 0.40 0.40 0.39 0.38 0.39 0.41
0.32 0.38 0.51 0.40 0.16 0.15 0.28 0.40 0.15 0.07 0.06 0.05 0.04 0.05 0.02 0.03 0.04 0.04 0.02 0.02 0.03 0.03 0.03 0.03 0.03 0.03 0.03 0.05 0.10 0.13 0.20 0.25 0.29 0.32 0.35 0.38 0.46 0.54 0.56 0.52 0.46 0.42 0.39 0.38
0.39 0.57 0.59 0.35 0.13 0.16 0.29 0.42 0.21 0.07 0.03 0.02 0.02 0.02 0.01 0.02 0.03 0.03 0.01 0.01 0.01 0.01 0.01 0.01 0.00 0.00 0.01 0.02 0.02 0.02 0.04 0.10 0.18 0.29 0.35 0.45 0.56 0.59 0.58 0.52 0.44 0.40 0.38 0.36
0.51 0.68 0.76 0.39 0.20 0.23 0.21 0.14 0.11 0.05 0.02 0.01 0.01 0.01 0.01 0.01 0.02 0.01 0.01 0.01 0.00 0.00 0.00 0.00 0.00 0.00 0.00 0.00 0.01 0.01 0.03 0.07 0.13 0.20 0.29 0.43 0.51 0.51 0.50 0.49 0.46 0.42 0.43 0.40
0.51 0.57 0.49 0.29 0.19 0.13 0.09 0.09 0.04 0.02 0.01 0.01 0.00 0.00 0.01 0.01 0.02 0.01 0.01 0.01 0.00 0.00 0.00 0.00 0.00 0.00 0.00 0.00 0.00 0.00 0.01 0.03 0.06 0.11 0.22 0.36 0.39 0.39 0.43 0.45 0.44 0.43 0.42 0.40
0.21 0.16 0.15 0.12 0.09 0.05 0.04 0.04 0.01 0.01 0.01 0.01 0.01 0.00 0.00 0.01 0.01 0.01 0.01 0.01 0.00 0.00 0.00 0.00 0.00 0.00 0.00 0.00 0.00 0.00 0.00 0.00 0.01 0.02 0.05 0.10 0.15 0.20 0.26 0.32 0.33 0.32 0.35 0.39
0.21 0.10 0.06 0.05 0.04 0.03 0.02 0.02 0.01 0.00 0.00 0.00 0.01 0.00 0.00 0.00 0.01 0.01 0.01 0.01 0.00 0.00 0.00 0.00 0.00 0.00 0.00 0.00 0.00 0.00 0.00 0.00 0.01 0.02 0.03 0.04 0.06 0.09 0.13 0.16 0.19 0.25 0.31 0.34
0.20 0.13 0.07 0.04 0.03 0.02 0.02 0.01 0.01 0.01 0.00 0.00 0.00 0.00 0.00 0.00 0.00 0.00 0.01 0.01 0.01 0.00 0.00 0.00 0.00 0.00 0.00 0.00 0.00 0.00 0.00 0.00 0.00 0.01 0.02 0.02 0.03 0.03 0.05 0.07 0.09 0.12 0.15 0.18
0.09 0.08 0.06 0.05 0.05 0.03 0.02 0.01 0.01 0.01 0.00 0.00 0.00 0.00 0.00 0.00 0.00 0.00 0.01 0.01 0.02 0.01 0.01 0.00 0.00 0.00 0.00 0.00 0.00 0.00 0.00 0.00 0.00 0.01 0.01 0.02 0.04 0.05 0.04 0.03 0.02 0.03 0.05 0.09
0.04 0.05 0.06 0.05 0.03 0.02 0.01 0.01 0.00 0.00 0.00 0.00 0.00 0.00 0.00 0.00 0.00 0.00 0.00 0.01 0.01 0.02 0.01 0.01 0.00 0.00 0.00 0.00 0.00 0.00 0.01 0.00 0.01 0.05 0.07 0.05 0.05 0.09 0.11 0.13 0.09 0.04 0.02 0.04
0.03 0.04 0.05 0.04 0.01 0.01 0.00 0.00 0.00 0.00 0.00 0.00 0.00 0.00 0.00 0.00 0.00 0.00 0.00 0.00 0.01 0.01 0.02 0.01 0.01 0.00 0.00 0.00 0.01 0.01 0.00 0.01 0.03 0.07 0.07 0.08 0.11 0.13 0.13 0.13 0.12 0.07 0.04 0.03
0.02 0.02 0.03 0.02 0.01 0.00 0.00 0.00 0.00 0.00 0.00 0.00 0.00 0.00 0.00 0.00 0.00 0.00 0.00 0.00 0.00 0.00 0.02 0.02 0.02 0.01 0.01 0.00 0.01 0.01 0.01 0.01 0.02 0.04 0.05 0.07 0.08 0.10 0.09 0.08 0.08 0.06 0.05 0.04
0.01 0.01 0.01 0.01 0.00 0.00 0.00 0.00 0.00 0.00 0.00 0.00 0.00 0.00 0.00 0.00 0.00 0.00 0.00 0.00 0.00 0.00 0.00 0.01 0.02 0.02 0.01 0.01 0.00 0.01 0.01 0.01 0.01 0.02 0.04 0.04 0.04 0.04 0.06 0.05 0.05 0.04 0.03 0.03
0.01 0.01 0.01 0.01 0.01 0.00 0.00 0.00 0.00 0.00 0.00 0.00 0.00 0.01 0.01 0.01 0.00 0.00 0.00 0.00 0.00 0.00 0.00 0.00 0.01 0.02 0.02 0.01 0.01 0.01 0.02 0.02 0.02 0.04 0.06 0.05 0.04 0.04 0.05 0.06 0.06 0.05 0.05 0.04
0.01 0.01 0.01 0.01 0.01 0.01 0.01 0.01 0.01 0.01 0.01 0.01 0.01 0.01 0.01 0.01 0.01 0.01 0.01 0.01 0.01 0.01 0.01 0.01 0.01 0.01 0.02 0.02 0.02 0.02 0.03 0.03 0.03 0.05 0.06 0.05 0.06 0.06 0.06 0.06 0.07 0.07 0.08 0.08
0.02 0.02 0.01 0.01 0.01 0.01 0.01 0.01 0.01 0.01 0.01 0.01 0.01 0.02 0.02 0.01 0.01 0.01 0.01 0.01 0.01 0.01 0.01 0.01 0.01 0.01 0.02 0.03 0.05 0.04 0.04 0.04 0.05 0.06 0.07 0.08 0.08 0.08 0.07 0.07 0.07 0.08 0.09 0.10
0.04 0.03 0.02 0.02 0.02 0.02 0.02 0.02 0.02 0.02 0.02 0.02 0.02 0.02 0.02 0.01 0.01 0.01 0.01 0.01 0.01 0.01 0.01 0.02 0.03 0.03 0.04 0.05 0.07 0.06 0.05 0.05 0.06 0.07 0.07 0.09 0.10 0.11 0.12 0.11 0.11 0.11 0.12 0.12
0.05 0.05 0.04 0.04 0.03 0.03 0.02 0.02 0.02 0.02 0.02 0.02 0.02 0.02 0.02 0.02 0.02 0.02 0.02 0.02 0.03 0.03 0.03 0.04 0.05 0.06 0.07 0.08 0.06 0.07 0.08 0.08 0.08 0.09 0.09 0.10 0.12 0.14 0.16 0.15 0.14 0.13 0.14 0.15
0.04 0.04 0.04 0.04 0.04 0.03 0.03 0.03 0.03 0.02 0.02 0.02 0.03 0.03 0.03 0.04 0.04 0.05 0.06 0.05 0.06 0.07 0.07 0.07 0.08 0.09 0.10 0.09 0.08 0.07 0.08 0.09 0.11 0.12 0.13 0.13 0.13 0.15 0.18 0.18 0.17 0.17 0.17 0.18
0.04 0.04 0.04 0.03 0.03 0.04 0.05 0.05 0.05 0.04 0.04 0.04 0.04 0.04 0.05 0.07 0.07 0.08 0.09 0.09 0.10 0.10 0.08 0.08 0.09 0.10 0.10 0.08 0.09 0.10 0.10 0.11 0.12 0.14 0.17 0.19 0.18 0.18 0.19 0.20 0.21 0.21 0.21 0.22
0.06 0.05 0.04 0.04 0.04 0.05 0.07 0.07 0.06 0.05 0.04 0.04 0.04 0.04 0.05 0.06 0.07 0.08 0.09 0.10 0.11 0.11 0.09 0.10 0.11 0.12 0.11 0.10 0.13 0.14 0.15 0.16 0.17 0.17 0.18 0.20 0.21 0.22 0.23 0.24 0.24 0.25 0.25 0.25
0.06 0.05 0.04 0.04 0.04 0.05 0.06 0.05 0.06 0.07 0.06 0.06 0.06 0.06 0.07 0.07 0.08 0.09 0.10 0.10 0.11 0.12 0.10 0.09 0.09 0.10 0.10 0.12 0.14 0.16 0.18 0.19 0.19 0.19 0.20 0.23 0.25 0.25 0.27 0.29 0.29 0.29 0.29 0.29
0.06 0.05 0.05 0.04 0.04 0.04 0.05 0.06 0.06 0.08 0.10 0.11 0.12 0.13 0.12 0.12 0.13 0.13 0.12 0.11 0.11 0.12 0.13 0.13 0.13 0.12 0.13 0.15 0.16 0.17 0.18 0.20 0.19 0.20 0.22 0.24 0.27 0.28 0.29 0.30 0.31 0.33 0.34 0.35